| time (UTC) | temp C | wind direction | speed KPH | gust KPH | rain 1hr cm | rain 24hr cm | rain mn cm | humidity % | barometer mb |
| 20260508014004 | 10 | 102 | 1.6 | 4.8 | 0.00 | 0.00 | 0.00 | 83 | 1021.3 |
| 20260508013505 | 10 | 104 | 3.2 | 4.8 | 0.00 | 0.00 | 0.00 | 84 | 1021.3 |
| 20260508013004 | 10 | 91 | 3.2 | 4.8 | 0.00 | 0.00 | 0.00 | 83 | 1021.3 |
| 20260508012504 | 10 | 87 | 3.2 | 4.8 | 0.00 | 0.00 | 0.00 | 83 | 1021.3 |
| 20260508011504 | 11 | 94 | 3.2 | 3.2 | 0.00 | 0.00 | 0.00 | 82 | 1021.3 |
| 20260508010505 | 11 | 78 | 3.2 | 6.4 | 0.00 | 0.00 | 0.00 | 82 | 1021.3 |
| 20260508010005 | 11 | 82 | 3.2 | 3.2 | 0.00 | 0.00 | 0.00 | 82 | 1021.3 |
| 20260508005504 | 11 | 94 | 4.8 | 6.4 | 0.00 | 0.00 | 0.00 | 82 | 1021.3 |
| 20260508005004 | 11 | 91 | 4.8 | 6.4 | 0.00 | 0.00 | 0.00 | 82 | 1021.3 |
| 20260508004505 | 11 | 79 | 4.8 | 4.8 | 0.00 | 0.00 | 0.00 | 81 | 1022.3 |
| 20260508003504 | 11 | 87 | 4.8 | 6.4 | 0.00 | 0.00 | 0.00 | 81 | 1022.3 |
| 20260508002504 | 11 | 93 | 4.8 | 6.4 | 0.00 | 0.00 | 0.00 | 79 | 1022.3 |
| 20260508002004 | 11 | 93 | 6.4 | 6.4 | 0.00 | 0.00 | 0.00 | 79 | 1022.3 |
| 20260508001503 | 11 | 94 | 4.8 | 6.4 | 0.00 | 0.00 | 0.00 | 79 | 1022.3 |
| 20260508000006 | 11 | 77 | 4.8 | 6.4 | 0.00 | 0.00 | 0.00 | 79 | 1022.3 |
| 20260507235505 | 11 | 80 | 4.8 | 4.8 | 0.00 | 0.00 | 0.00 | 79 | 1022.3 |
| 20260507235005 | 11 | 85 | 4.8 | 4.8 | 0.00 | 0.00 | 0.00 | 79 | 1022.3 |
| 20260507234505 | 11 | 94 | 4.8 | 4.8 | 0.00 | 0.00 | 0.00 | 78 | 1022.3 |
| 20260507234004 | 11 | 95 | 4.8 | 6.4 | 0.00 | 0.00 | 0.00 | 78 | 1022.3 |
| 20260507233504 | 11 | 91 | 4.8 | 6.4 | 0.00 | 0.00 | 0.00 | 78 | 1022.3 |
| 20260507233005 | 11 | 82 | 4.8 | 6.4 | 0.00 | 0.00 | 0.00 | 78 | 1022.3 |
| 20260507232504 | 11 | 75 | 4.8 | 4.8 | 0.00 | 0.00 | 0.00 | 77 | 1022.3 |
| 20260507232004 | 11 | 68 | 4.8 | 4.8 | 0.00 | 0.00 | 0.00 | 77 | 1022.3 |
| 20260507231004 | 11 | 79 | 4.8 | 6.4 | 0.00 | 0.00 | 0.00 | 76 | 1022.3 |
| 20260507230504 | 11 | 79 | 4.8 | 6.4 | 0.00 | 0.00 | 0.00 | 76 | 1022.3 |
| 20260507230009 | 11 | 86 | 3.2 | 4.8 | 0.00 | 0.00 | 0.00 | 76 | 1022.3 |
| 20260507225504 | 11 | 81 | 3.2 | 4.8 | 0.00 | 0.00 | 0.00 | 76 | 1022.3 |
| 20260507225005 | 11 | 72 | 3.2 | 4.8 | 0.00 | 0.00 | 0.00 | 76 | 1022.3 |
| 20260507224004 | 11 | 87 | 4.8 | 6.4 | 0.00 | 0.00 | 0.00 | 75 | 1022.3 |
| 20260507223504 | 11 | 83 | 4.8 | 6.4 | 0.00 | 0.00 | 0.00 | 75 | 1022.3 |
| 20260507223004 | 11 | 83 | 4.8 | 6.4 | 0.00 | 0.00 | 0.00 | 74 | 1022.3 |
| 20260507222504 | 11 | 86 | 3.2 | 4.8 | 0.00 | 0.00 | 0.00 | 74 | 1022.3 |
| 20260507222005 | 11 | 79 | 4.8 | 4.8 | 0.00 | 0.00 | 0.00 | 74 | 1022.3 |
| 20260507221504 | 11 | 83 | 3.2 | 4.8 | 0.00 | 0.00 | 0.00 | 74 | 1022.3 |
| 20260507220504 | 11 | 80 | 4.8 | 6.4 | 0.00 | 0.00 | 0.00 | 74 | 1022.3 |
| 20260507215504 | 11 | 81 | 4.8 | 6.4 | 0.00 | 0.00 | 0.00 | 74 | 1022.3 |
| 20260507215005 | 11 | 79 | 6.4 | 8.0 | 0.00 | 0.00 | 0.00 | 74 | 1022.3 |
| 20260507214504 | 11 | 76 | 6.4 | 8.0 | 0.00 | 0.00 | 0.00 | 74 | 1022.3 |
| 20260507214006 | 11 | 78 | 4.8 | 6.4 | 0.00 | 0.00 | 0.00 | 73 | 1022.3 |
| 20260507213504 | 11 | 79 | 4.8 | 6.4 | 0.00 | 0.00 | 0.00 | 73 | 1022.3 |
| 20260507213004 | 11 | 74 | 3.2 | 4.8 | 0.00 | 0.00 | 0.00 | 72 | 1022.3 |
| 20260507212504 | 11 | 78 | 3.2 | 3.2 | 0.00 | 0.00 | 0.00 | 72 | 1022.3 |
| 20260507212004 | 11 | 90 | 3.2 | 4.8 | 0.00 | 0.00 | 0.00 | 72 | 1022.3 |
| 20260507211504 | 11 | 90 | 3.2 | 4.8 | 0.00 | 0.00 | 0.00 | 72 | 1022.3 |
| 20260507210006 | 11 | 99 | 4.8 | 4.8 | 0.00 | 0.00 | 0.00 | 71 | 1022.3 |
| 20260507205505 | 11 | 98 | 4.8 | 6.4 | 0.00 | 0.00 | 0.00 | 71 | 1022.3 |
| 20260507205004 | 11 | 95 | 4.8 | 6.4 | 0.00 | 0.00 | 0.00 | 71 | 1022.3 |
| 20260507204505 | 11 | 97 | 4.8 | 6.4 | 0.00 | 0.00 | 0.00 | 71 | 1022.3 |
| 20260507204004 | 12 | 90 | 4.8 | 6.4 | 0.00 | 0.00 | 0.00 | 70 | 1022.3 |
| 20260507203504 | 12 | 80 | 6.4 | 6.4 | 0.00 | 0.00 | 0.00 | 70 | 1022.3 |
| 20260507203005 | 12 | 89 | 4.8 | 8.0 | 0.00 | 0.00 | 0.00 | 69 | 1022.3 |
| 20260507202504 | 12 | 89 | 4.8 | 8.0 | 0.00 | 0.00 | 0.00 | 69 | 1022.3 |
| 20260507202005 | 12 | 89 | 4.8 | 8.0 | 0.00 | 0.00 | 0.00 | 69 | 1022.3 |
| 20260507201005 | 12 | 82 | 6.4 | 8.0 | 0.00 | 0.00 | 0.00 | 69 | 1022.3 |
| 20260507200504 | 12 | 80 | 6.4 | 8.0 | 0.00 | 0.00 | 0.00 | 69 | 1022.3 |
| 20260507200006 | 12 | 84 | 6.4 | 8.0 | 0.00 | 0.00 | 0.00 | 68 | 1022.3 |
| 20260507195504 | 12 | 94 | 4.8 | 6.4 | 0.00 | 0.00 | 0.00 | 68 | 1022.3 |
| 20260507194504 | 13 | 81 | 3.2 | 6.4 | 0.00 | 0.00 | 0.00 | 67 | 1021.3 |
| 20260507193504 | 13 | 78 | 3.2 | 4.8 | 0.00 | 0.00 | 0.00 | 64 | 1021.3 |
| 20260507193004 | 13 | 74 | 3.2 | 4.8 | 0.00 | 0.00 | 0.00 | 64 | 1021.3 |
| 20260507192504 | 13 | 87 | 1.6 | 3.2 | 0.00 | 0.00 | 0.00 | 63 | 1021.3 |
| 20260507192004 | 13 | 77 | 1.6 | 3.2 | 0.00 | 0.00 | 0.00 | 63 | 1021.3 |
| 20260507191504 | 13 | 68 | 1.6 | 3.2 | 0.00 | 0.00 | 0.00 | 62 | 1021.3 |
| 20260507191004 | 14 | 68 | 1.6 | 3.2 | 0.00 | 0.00 | 0.00 | 62 | 1021.3 |
| 20260507190504 | 14 | 72 | 1.6 | 3.2 | 0.00 | 0.00 | 0.00 | 61 | 1021.3 |
| 20260507190006 | 14 | 74 | 1.6 | 3.2 | 0.00 | 0.00 | 0.00 | 61 | 1021.3 |
| 20260507185504 | 14 | 88 | 1.6 | 3.2 | 0.00 | 0.00 | 0.00 | 61 | 1021.3 |
| 20260507185004 | 14 | 248 | 1.6 | 1.6 | 0.00 | 0.00 | 0.00 | 64 | 1021.3 |
| 20260507184505 | 14 | 248 | 1.6 | 3.2 | 0.00 | 0.00 | 0.00 | 64 | 1022.3 |
| 20260507184004 | 14 | 248 | 1.6 | 3.2 | 0.00 | 0.00 | 0.00 | 64 | 1022.3 |
| 20260507183504 | 14 | 248 | 3.2 | 3.2 | 0.00 | 0.00 | 0.00 | 63 | 1022.3 |
| 20260507183004 | 15 | 248 | 3.2 | 3.2 | 0.00 | 0.00 | 0.00 | 63 | 1021.3 |
| 20260507182503 | 15 | 270 | 1.6 | 3.2 | 0.00 | 0.00 | 0.00 | 62 | 1021.3 |
| 20260507182004 | 15 | 270 | 1.6 | 3.2 | 0.00 | 0.00 | 0.00 | 62 | 1021.3 |
| 20260507181506 | 15 | 270 | 1.6 | 3.2 | 0.00 | 0.00 | 0.00 | 62 | 1021.3 |
| 20260507181006 | 15 | 292 | 1.6 | 3.2 | 0.00 | 0.00 | 0.00 | 62 | 1021.3 |
| 20260507180507 | 15 | 292 | 1.6 | 3.2 | 0.00 | 0.00 | 0.00 | 62 | 1021.3 |
| 20260507180008 | 15 | 292 | 1.6 | 3.2 | 0.00 | 0.00 | 0.00 | 62 | 1021.3 |
| 20260507175505 | 15 | 292 | 1.6 | 3.2 | 0.00 | 0.00 | 0.00 | 62 | 1021.3 |
| 20260507175005 | 15 | 292 | 1.6 | 3.2 | 0.00 | 0.00 | 0.00 | 62 | 1021.3 |
| 20260507174505 | 15 | 292 | 1.6 | 3.2 | 0.00 | 0.00 | 0.00 | 62 | 1021.3 |
| 20260507174006 | 15 | 292 | 1.6 | 3.2 | 0.00 | 0.00 | 0.00 | 62 | 1021.3 |
| 20260507173506 | 15 | 0 | 0.0 | 0.0 | 0.00 | 0.00 | 0.00 | 61 | 1021.3 |
| 20260507173006 | 15 | 0 | 0.0 | 0.0 | 0.00 | 0.00 | 0.00 | 61 | 1021.3 |
| 20260507172506 | 15 | 0 | 0.0 | 0.0 | 0.00 | 0.00 | 0.00 | 62 | 1021.3 |
| 20260507172005 | 15 | 112 | 0.0 | 1.6 | 0.00 | 0.00 | 0.00 | 63 | 1021.3 |
| 20260507171505 | 15 | 112 | 1.6 | 1.6 | 0.00 | 0.00 | 0.00 | 63 | 1022.3 |
| 20260507170505 | 15 | 112 | 1.6 | 1.6 | 0.00 | 0.00 | 0.00 | 62 | 1022.3 |
| 20260507170008 | 15 | 112 | 1.6 | 3.2 | 0.00 | 0.00 | 0.00 | 62 | 1022.3 |
| 20260507165506 | 15 | 112 | 1.6 | 3.2 | 0.00 | 0.00 | 0.00 | 63 | 1022.3 |
| 20260507164505 | 15 | 203 | 4.8 | 4.8 | 0.00 | 0.00 | 0.00 | 62 | 1022.3 |
| 20260507164005 | 15 | 203 | 4.8 | 4.8 | 0.00 | 0.00 | 0.00 | 62 | 1022.3 |
| 20260507163006 | 15 | 192 | 3.2 | 6.4 | 0.00 | 0.00 | 0.00 | 57 | 1022.3 |
| 20260507161505 | 15 | 134 | 3.2 | 4.8 | 0.00 | 0.00 | 0.00 | 52 | 1021.3 |
| 20260507161006 | 16 | 112 | 4.8 | 6.4 | 0.00 | 0.00 | 0.00 | 51 | 1021.3 |
| 20260507160506 | 16 | 111 | 4.8 | 6.4 | 0.00 | 0.00 | 0.00 | 50 | 1021.3 |
| 20260507160007 | 16 | 111 | 6.4 | 6.4 | 0.00 | 0.00 | 0.00 | 50 | 1021.3 |
| 20260507155505 | 16 | 105 | 6.4 | 8.0 | 0.00 | 0.00 | 0.00 | 50 | 1021.3 |
| 20260507155006 | 16 | 105 | 6.4 | 8.0 | 0.00 | 0.00 | 0.00 | 49 | 1021.3 |
| 20260507154505 | 16 | 99 | 4.8 | 6.4 | 0.00 | 0.00 | 0.00 | 50 | 1021.3 |
| 20260507154005 | 17 | 114 | 4.8 | 6.4 | 0.00 | 0.00 | 0.00 | 52 | 1021.3 |
| 20260507153505 | 16 | 114 | 4.8 | 6.4 | 0.00 | 0.00 | 0.00 | 51 | 1021.3 |
| 20260507153005 | 16 | 112 | 3.2 | 3.2 | 0.00 | 0.00 | 0.00 | 51 | 1022.3 |
| 20260507152505 | 17 | 151 | 6.4 | 8.0 | 0.00 | 0.00 | 0.00 | 51 | 1022.3 |
| 20260507151505 | 17 | 143 | 4.8 | 8.0 | 0.00 | 0.00 | 0.00 | 50 | 1022.3 |
| 20260507151006 | 17 | 165 | 6.4 | 8.0 | 0.00 | 0.00 | 0.00 | 51 | 1022.3 |
| 20260507150504 | 17 | 197 | 6.4 | 8.0 | 0.00 | 0.00 | 0.00 | 50 | 1022.3 |
| 20260507150007 | 17 | 188 | 6.4 | 8.0 | 0.00 | 0.00 | 0.00 | 49 | 1022.3 |
| 20260507145005 | 17 | 164 | 6.4 | 9.7 | 0.00 | 0.00 | 0.00 | 49 | 1022.3 |
| 20260507144004 | 18 | 131 | 8.0 | 12.9 | 0.00 | 0.00 | 0.00 | 49 | 1022.3 |
| 20260507143505 | 18 | 133 | 9.7 | 12.9 | 0.00 | 0.00 | 0.00 | 48 | 1022.3 |
| 20260507142505 | 18 | 139 | 9.7 | 14.5 | 0.00 | 0.00 | 0.00 | 48 | 1022.3 |
| 20260507142005 | 18 | 146 | 9.7 | 14.5 | 0.00 | 0.00 | 0.00 | 47 | 1022.3 |
| 20260507141505 | 17 | 147 | 9.7 | 14.5 | 0.00 | 0.00 | 0.00 | 49 | 1022.3 |
| 20260507140505 | 17 | 337 | 9.7 | 9.7 | 0.00 | 0.00 | 0.00 | 51 | 1022.3 |
| 20260507140007 | 16 | 337 | 9.7 | 9.7 | 0.00 | 0.00 | 0.00 | 53 | 1022.3 |
| 20260507135505 | 16 | 337 | 9.7 | 9.7 | 0.00 | 0.00 | 0.00 | 52 | 1022.3 |
| 20260507135006 | 16 | 337 | 9.7 | 9.7 | 0.00 | 0.00 | 0.00 | 52 | 1022.3 |
| 20260507134504 | 16 | 337 | 9.7 | 9.7 | 0.00 | 0.00 | 0.00 | 56 | 1022.3 |
| 20260507134005 | 16 | 337 | 9.7 | 9.7 | 0.00 | 0.00 | 0.00 | 59 | 1022.3 |
| 20260507133505 | 16 | 337 | 9.7 | 9.7 | 0.00 | 0.00 | 0.00 | 58 | 1022.3 |
| 20260507133005 | 16 | 297 | 8.0 | 9.7 | 0.00 | 0.00 | 0.00 | 57 | 1022.3 |
| 20260507132505 | 16 | 303 | 6.4 | 9.7 | 0.00 | 0.00 | 0.00 | 58 | 1022.3 |
| 20260507132005 | 16 | 298 | 6.4 | 6.4 | 0.00 | 0.00 | 0.00 | 59 | 1022.3 |
| 20260507131507 | 16 | 298 | 6.4 | 6.4 | 0.00 | 0.00 | 0.00 | 58 | 1022.3 |
| 20260507125505 | 16 | 324 | 1.6 | 3.2 | 0.00 | 0.00 | 0.00 | 61 | 1022.3 |
| 20260507125004 | 16 | 335 | 1.6 | 3.2 | 0.00 | 0.00 | 0.00 | 61 | 1022.3 |
| 20260507124505 | 16 | 353 | 3.2 | 4.8 | 0.00 | 0.00 | 0.00 | 62 | 1022.3 |
| 20260507124005 | 15 | 342 | 3.2 | 4.8 | 0.00 | 0.00 | 0.00 | 62 | 1022.3 |
| 20260507123505 | 15 | 316 | 4.8 | 6.4 | 0.00 | 0.00 | 0.00 | 63 | 1022.3 |
| 20260507123005 | 15 | 334 | 4.8 | 8.0 | 0.00 | 0.00 | 0.00 | 63 | 1022.3 |
| 20260507122505 | 15 | 329 | 6.4 | 8.0 | 0.00 | 0.00 | 0.00 | 62 | 1022.3 |
| 20260507122005 | 15 | 309 | 6.4 | 6.4 | 0.00 | 0.00 | 0.00 | 64 | 1022.3 |
| 20260507114004 | 16 | 322 | 6.4 | 6.4 | 0.00 | 0.00 | 0.00 | 63 | 1022.3 |
| 20260507113505 | 16 | 308 | 8.0 | 8.0 | 0.00 | 0.00 | 0.00 | 63 | 1022.3 |
| 20260507113006 | 15 | 306 | 8.0 | 9.7 | 0.00 | 0.00 | 0.00 | 65 | 1022.3 |
| 20260507112504 | 15 | 303 | 8.0 | 9.7 | 0.00 | 0.00 | 0.00 | 65 | 1022.3 |
| 20260507112005 | 15 | 288 | 8.0 | 11.3 | 0.00 | 0.00 | 0.00 | 66 | 1022.3 |
| 20260507111506 | 15 | 287 | 6.4 | 11.3 | 0.00 | 0.00 | 0.00 | 66 | 1022.3 |
| 20260507111006 | 16 | 291 | 4.8 | 11.3 | 0.00 | 0.00 | 0.00 | 67 | 1022.3 |
| 20260507110505 | 15 | 290 | 4.8 | 9.7 | 0.00 | 0.00 | 0.00 | 67 | 1022.3 |
| 20260507110007 | 16 | 321 | 8.0 | 9.7 | 0.00 | 0.00 | 0.00 | 65 | 1022.3 |
| 20260507105505 | 16 | 329 | 6.4 | 9.7 | 0.00 | 0.00 | 0.00 | 63 | 1022.3 |
| 20260507105005 | 16 | 306 | 6.4 | 9.7 | 0.00 | 0.00 | 0.00 | 63 | 1022.3 |
| 20260507104505 | 16 | 296 | 8.0 | 9.7 | 0.00 | 0.00 | 0.00 | 63 | 1022.3 |
| 20260507104004 | 17 | 288 | 8.0 | 8.0 | 0.00 | 0.00 | 0.00 | 61 | 1022.3 |
| 20260507103505 | 16 | 280 | 6.4 | 8.0 | 0.00 | 0.00 | 0.00 | 61 | 1022.3 |
| 20260507103004 | 17 | 214 | 6.4 | 8.0 | 0.00 | 0.00 | 0.00 | 59 | 1022.3 |
| 20260507102505 | 17 | 250 | 4.8 | 8.0 | 0.00 | 0.00 | 0.00 | 59 | 1022.3 |
| 20260507102006 | 17 | 270 | 4.8 | 6.4 | 0.00 | 0.00 | 0.00 | 59 | 1022.3 |
| 20260507101506 | 17 | 269 | 6.4 | 8.0 | 0.00 | 0.00 | 0.00 | 62 | 1022.3 |
| 20260507101006 | 16 | 289 | 6.4 | 8.0 | 0.00 | 0.00 | 0.00 | 63 | 1022.3 |
| 20260507100504 | 16 | 286 | 4.8 | 8.0 | 0.00 | 0.00 | 0.00 | 63 | 1022.3 |
| 20260507100007 | 16 | 213 | 4.8 | 6.4 | 0.00 | 0.00 | 0.00 | 62 | 1022.3 |
| 20260507095504 | 16 | 176 | 6.4 | 12.9 | 0.00 | 0.00 | 0.00 | 58 | 1022.3 |
| 20260507095005 | 16 | 156 | 6.4 | 12.9 | 0.00 | 0.00 | 0.00 | 58 | 1022.3 |
| 20260507094505 | 16 | 139 | 4.8 | 9.7 | 0.00 | 0.00 | 0.00 | 61 | 1022.3 |
| 20260507094005 | 16 | 136 | 6.4 | 9.7 | 0.00 | 0.00 | 0.00 | 62 | 1022.3 |
| 20260507093504 | 16 | 181 | 6.4 | 6.4 | 0.00 | 0.00 | 0.00 | 62 | 1022.3 |
| 20260507093006 | 16 | 217 | 6.4 | 9.7 | 0.00 | 0.00 | 0.00 | 63 | 1022.3 |
| 20260507092505 | 16 | 238 | 6.4 | 9.7 | 0.00 | 0.00 | 0.00 | 64 | 1022.3 |
| 20260507092005 | 16 | 158 | 3.2 | 3.2 | 0.00 | 0.00 | 0.00 | 64 | 1022.3 |
| 20260507091504 | 16 | 158 | 3.2 | 3.2 | 0.00 | 0.00 | 0.00 | 63 | 1022.3 |
| 20260507091004 | 16 | 158 | 3.2 | 3.2 | 0.00 | 0.00 | 0.00 | 61 | 1022.3 |
| 20260507090505 | 17 | 158 | 3.2 | 3.2 | 0.00 | 0.00 | 0.00 | 58 | 1022.3 |
| 20260507090007 | 17 | 158 | 3.2 | 3.2 | 0.00 | 0.00 | 0.00 | 58 | 1022.3 |
| 20260507085504 | 17 | 172 | 6.4 | 8.0 | 0.00 | 0.00 | 0.00 | 60 | 1022.3 |
| 20260507085004 | 17 | 182 | 6.4 | 9.7 | 0.00 | 0.00 | 0.00 | 61 | 1022.3 |
| 20260507084504 | 17 | 197 | 8.0 | 9.7 | 0.00 | 0.00 | 0.00 | 61 | 1022.3 |
| 20260507084005 | 17 | 184 | 6.4 | 9.7 | 0.00 | 0.00 | 0.00 | 62 | 1022.3 |
| 20260507083504 | 17 | 169 | 4.8 | 6.4 | 0.00 | 0.00 | 0.00 | 63 | 1022.3 |
| 20260507083005 | 17 | 152 | 4.8 | 6.4 | 0.00 | 0.00 | 0.00 | 62 | 1022.3 |
| 20260507082505 | 17 | 143 | 4.8 | 6.4 | 0.00 | 0.00 | 0.00 | 63 | 1022.3 |
| 20260507082005 | 16 | 141 | 4.8 | 4.8 | 0.00 | 0.00 | 0.00 | 64 | 1022.3 |
| 20260507081505 | 16 | 158 | 4.8 | 4.8 | 0.00 | 0.00 | 0.00 | 65 | 1022.3 |
| 20260507081005 | 16 | 124 | 4.8 | 4.8 | 0.00 | 0.00 | 0.00 | 66 | 1022.3 |
| 20260507080505 | 15 | 124 | 4.8 | 4.8 | 0.00 | 0.00 | 0.00 | 73 | 1022.3 |
| 20260507080007 | 15 | 124 | 4.8 | 4.8 | 0.00 | 0.00 | 0.00 | 73 | 1022.3 |
| 20260507075504 | 15 | 124 | 4.8 | 4.8 | 0.00 | 0.00 | 0.00 | 73 | 1022.3 |
| 20260507075004 | 15 | 136 | 4.8 | 4.8 | 0.00 | 0.00 | 0.00 | 73 | 1022.3 |
| 20260507074505 | 15 | 142 | 4.8 | 4.8 | 0.00 | 0.00 | 0.00 | 72 | 1022.3 |
| 20260507074004 | 15 | 121 | 3.2 | 6.4 | 0.00 | 0.00 | 0.00 | 72 | 1022.3 |
| 20260507073504 | 15 | 113 | 3.2 | 6.4 | 0.00 | 0.00 | 0.00 | 72 | 1022.3 |
| 20260507073005 | 15 | 112 | 3.2 | 4.8 | 0.00 | 0.00 | 0.00 | 72 | 1022.3 |
| 20260507072505 | 16 | 107 | 4.8 | 6.4 | 0.00 | 0.00 | 0.00 | 70 | 1022.3 |
| 20260507072004 | 15 | 104 | 4.8 | 6.4 | 0.00 | 0.00 | 0.00 | 71 | 1022.3 |
| 20260507071505 | 14 | 111 | 6.4 | 6.4 | 0.00 | 0.00 | 0.00 | 73 | 1022.3 |
| 20260507071005 | 14 | 111 | 6.4 | 6.4 | 0.00 | 0.00 | 0.00 | 72 | 1022.3 |
| 20260507070504 | 15 | 111 | 6.4 | 6.4 | 0.00 | 0.00 | 0.00 | 66 | 1022.3 |
| 20260507070010 | 15 | 111 | 6.4 | 6.4 | 0.00 | 0.00 | 0.00 | 66 | 1022.3 |
| 20260507065505 | 15 | 111 | 6.4 | 6.4 | 0.00 | 0.00 | 0.00 | 65 | 1022.3 |
| 20260507065004 | 15 | 111 | 6.4 | 6.4 | 0.00 | 0.00 | 0.00 | 65 | 1022.3 |
| 20260507064505 | 15 | 111 | 6.4 | 6.4 | 0.00 | 0.00 | 0.00 | 66 | 1022.3 |
| 20260507064005 | 15 | 112 | 6.4 | 6.4 | 0.00 | 0.00 | 0.00 | 65 | 1022.3 |
| 20260507063504 | 15 | 112 | 4.8 | 6.4 | 0.00 | 0.00 | 0.00 | 67 | 1022.3 |
| 20260507063005 | 15 | 107 | 4.8 | 6.4 | 0.00 | 0.00 | 0.00 | 69 | 1022.3 |
| 20260507062505 | 14 | 105 | 4.8 | 6.4 | 0.00 | 0.00 | 0.00 | 70 | 1022.3 |
| 20260507062004 | 13 | 100 | 6.4 | 8.0 | 0.00 | 0.00 | 0.00 | 73 | 1022.3 |
| 20260507061504 | 13 | 103 | 6.4 | 8.0 | 0.00 | 0.00 | 0.00 | 73 | 1022.3 |
| 20260507061005 | 12 | 103 | 8.0 | 11.3 | 0.00 | 0.00 | 0.00 | 76 | 1022.3 |
| 20260507060505 | 12 | 94 | 8.0 | 11.3 | 0.00 | 0.00 | 0.00 | 84 | 1022.3 |
| 20260507060006 | 8 | 91 | 6.4 | 8.0 | 0.00 | 0.00 | 0.00 | 99 | 1022.3 |
| 20260507055504 | 8 | 97 | 6.4 | 8.0 | 0.00 | 0.00 | 0.00 | 99 | 1022.3 |
| 20260507055005 | 8 | 103 | 8.0 | 8.0 | 0.00 | 0.00 | 0.00 | 99 | 1022.3 |
| 20260507054505 | 8 | 108 | 8.0 | 9.7 | 0.00 | 0.00 | 0.00 | 99 | 1022.3 |
| 20260507054005 | 8 | 106 | 8.0 | 9.7 | 0.00 | 0.00 | 0.00 | 99 | 1022.3 |
| 20260507053504 | 8 | 105 | 8.0 | 9.7 | 0.00 | 0.00 | 0.00 | 99 | 1022.3 |
| 20260507053005 | 8 | 95 | 8.0 | 9.7 | 0.00 | 0.00 | 0.00 | 99 | 1021.3 |
| 20260507052505 | 8 | 91 | 6.4 | 9.7 | 0.00 | 0.00 | 0.00 | 99 | 1021.3 |
| 20260507052004 | 8 | 103 | 6.4 | 6.4 | 0.00 | 0.00 | 0.00 | 99 | 1021.3 |
| 20260507051504 | 8 | 112 | 4.8 | 6.4 | 0.00 | 0.00 | 0.00 | 99 | 1022.3 |
| 20260507051004 | 8 | 102 | 4.8 | 6.4 | 0.00 | 0.00 | 0.00 | 99 | 1022.3 |
| 20260507050504 | 8 | 99 | 4.8 | 6.4 | 0.00 | 0.00 | 0.00 | 99 | 1022.3 |
| 20260507050006 | 8 | 109 | 3.2 | 4.8 | 0.00 | 0.00 | 0.00 | 99 | 1022.3 |
| 20260507045505 | 8 | 110 | 3.2 | 4.8 | 0.00 | 0.00 | 0.00 | 99 | 1022.3 |
| 20260507045004 | 8 | 112 | 3.2 | 4.8 | 0.00 | 0.00 | 0.00 | 99 | 1022.3 |
| 20260507044504 | 8 | 112 | 4.8 | 6.4 | 0.00 | 0.00 | 0.00 | 99 | 1021.3 |
| 20260507044004 | 8 | 112 | 4.8 | 6.4 | 0.00 | 0.00 | 0.00 | 99 | 1021.3 |
| 20260507043504 | 8 | 112 | 6.4 | 6.4 | 0.00 | 0.00 | 0.00 | 99 | 1021.3 |
| 20260507043004 | 8 | 114 | 4.8 | 6.4 | 0.00 | 0.00 | 0.00 | 99 | 1021.3 |
| 20260507042504 | 8 | 116 | 3.2 | 6.4 | 0.00 | 0.00 | 0.00 | 99 | 1021.3 |
| 20260507042004 | 8 | 107 | 4.8 | 8.0 | 0.00 | 0.00 | 0.00 | 99 | 1021.3 |
| 20260507041504 | 8 | 101 | 4.8 | 8.0 | 0.00 | 0.00 | 0.00 | 99 | 1021.3 |
| 20260507041004 | 8 | 106 | 4.8 | 6.4 | 0.00 | 0.00 | 0.00 | 99 | 1021.3 |
| 20260507040504 | 8 | 112 | 6.4 | 9.7 | 0.00 | 0.00 | 0.00 | 99 | 1021.3 |
| 20260507040006 | 8 | 112 | 8.0 | 9.7 | 0.00 | 0.00 | 0.00 | 99 | 1021.3 |
| 20260507035505 | 8 | 112 | 8.0 | 9.7 | 0.00 | 0.00 | 0.00 | 99 | 1021.3 |
| 20260507035005 | 8 | 112 | 6.4 | 9.7 | 0.00 | 0.00 | 0.00 | 99 | 1021.3 |
| 20260507034504 | 8 | 112 | 4.8 | 6.4 | 0.00 | 0.00 | 0.00 | 99 | 1021.3 |
| 20260507034004 | 8 | 99 | 6.4 | 6.4 | 0.00 | 0.00 | 0.00 | 99 | 1021.3 |
| 20260507033504 | 8 | 90 | 6.4 | 6.4 | 0.00 | 0.00 | 0.00 | 99 | 1021.3 |
| 20260507033005 | 8 | 90 | 6.4 | 6.4 | 0.00 | 0.00 | 0.00 | 99 | 1021.3 |
| 20260507032504 | 9 | 89 | 4.8 | 6.4 | 0.00 | 0.00 | 0.00 | 99 | 1021.3 |
| 20260507032004 | 9 | 107 | 3.2 | 4.8 | 0.00 | 0.00 | 0.00 | 99 | 1021.3 |
| 20260507031504 | 9 | 106 | 4.8 | 6.4 | 0.00 | 0.00 | 0.00 | 99 | 1021.3 |
| 20260507031004 | 9 | 104 | 3.2 | 6.4 | 0.00 | 0.00 | 0.00 | 99 | 1021.3 |
| 20260507030504 | 9 | 102 | 1.6 | 3.2 | 0.00 | 0.00 | 0.00 | 99 | 1021.3 |
| 20260507030006 | 9 | 99 | 1.6 | 3.2 | 0.00 | 0.00 | 0.00 | 99 | 1021.3 |
| 20260507025504 | 9 | 104 | 1.6 | 3.2 | 0.00 | 0.00 | 0.00 | 99 | 1021.3 |
| 20260507025005 | 9 | 95 | 1.6 | 3.2 | 0.00 | 0.00 | 0.00 | 99 | 1021.3 |
| 20260507024504 | 9 | 92 | 1.6 | 3.2 | 0.00 | 0.00 | 0.00 | 99 | 1021.3 |
| 20260507024004 | 9 | 94 | 3.2 | 4.8 | 0.00 | 0.00 | 0.00 | 99 | 1021.3 |
| 20260507023505 | 9 | 88 | 3.2 | 4.8 | 0.00 | 0.00 | 0.00 | 99 | 1021.3 |
| 20260507023004 | 9 | 91 | 1.6 | 4.8 | 0.00 | 0.00 | 0.00 | 99 | 1021.3 |
| 20260507022504 | 9 | 98 | 1.6 | 3.2 | 0.00 | 0.00 | 0.00 | 99 | 1021.3 |
| 20260507022004 | 9 | 106 | 3.2 | 6.4 | 0.00 | 0.00 | 0.00 | 99 | 1021.3 |
| 20260507021504 | 9 | 112 | 4.8 | 6.4 | 0.00 | 0.00 | 0.00 | 99 | 1022.3 |
| 20260507021004 | 9 | 100 | 4.8 | 4.8 | 0.00 | 0.00 | 0.00 | 99 | 1022.3 |
| 20260507020505 | 9 | 90 | 4.8 | 4.8 | 0.00 | 0.00 | 0.00 | 99 | 1022.3 |
| 20260507020006 | 9 | 99 | 3.2 | 4.8 | 0.00 | 0.00 | 0.00 | 100 | 1021.3 |
| 20260507015504 | 9 | 115 | 1.6 | 3.2 | 0.00 | 0.00 | 0.00 | 100 | 1021.3 |
| 20260507015004 | 9 | 105 | 1.6 | 3.2 | 0.00 | 0.00 | 0.00 | 100 | 1021.3 |